Regional Weather Roundup
Issued by NWS

Home | Current Version | Previous Version | Text Only | Print | Product List | Glossary Off
Versions: 1 2 3 4 5 6 7 8 9 10 11 12 13 14 15 16 17 18 19 20 21 22 23 24 25 26 27 28 29 30 31 32 33 34 35 36 37 38 39 40 41 42 43 44 45 46 47 48 49

000
ASUS45 KCYS 020610
RWRWY

WYOMING REGIONAL WEATHER ROUNDUP
NATIONAL WEATHER SERVICE CHEYENNE WY
1200 AM MDT WED SEP 02 2015

NOTE:  "FAIR" INDICATES FEW OR NO CLOUDS BELOW 12,000 FEET
WITH NO SIGNIFICANT WEATHER AND/OR OBSTRUCTIONS TO VISIBILITY.

WYZ001-020700-
YELLOWSTONE NATIONAL PARK

CITY           SKY/WX    TMP DP  RH WIND       PRES   REMARKS
LK YELLOWSTONE   N/A     43  30  60 CALM      30.17S
6HR MIN TEMP:  43; 6HR MAX TEMP:  71;

W YELLOWSTONE  NOT AVBL

$$
WYZ002>013-054>058-071-098>099-020700-
NORTHERN WYOMING

CITY           SKY/WX    TMP DP  RH WIND       PRES   REMARKS
JACKSON        FAIR      55  37  50 SE3       30.08R
CODY           FAIR      70  28  21 SW10      29.92F
GREYBULL       FAIR      70  34  26 S3        29.84R
6HR MIN TEMP:  69; 6HR MAX TEMP:  92;

WORLAND        FAIR      70  42  36 CALM      29.87R
6HR MIN TEMP:  70; 6HR MAX TEMP:  91;

SHERIDAN       FAIR      62  38  40 N6        29.83F
6HR MIN TEMP:  60; 6HR MAX TEMP:  92;

BUFFALO        FAIR      71  30  21 SE7       29.93F
6HR MIN TEMP:  67; 6HR MAX TEMP:  87;

GILLETTE       FAIR      66  33  29 S10       29.89F
6HR MIN TEMP:  59; 6HR MAX TEMP:  89;

HULETT         FAIR      70  43  37 SE7       29.93R
NEWCASTLE        N/A     63  36  36 CALM      29.97R

$$
WYZ014>020-022>026-101>103-020700-
CENTRAL WYOMING

CITY           SKY/WX    TMP DP  RH WIND       PRES   REMARKS
BIG PINEY      FAIR      59  34  39 SW3       30.16F
6HR MIN TEMP:  56; 6HR MAX TEMP:  79;

PINEDALE       FAIR      55  37  50 CALM      30.18S
DUBOIS         FAIR      54  30  40 NW9       30.13F
LANDER         FAIR      74  36  25 VRB6      30.01R
6HR MIN TEMP:  71; 6HR MAX TEMP:  84;

RIVERTON       FAIR      72  38  29 SE6       30.01S
6HR MIN TEMP:  72; 6HR MAX TEMP:  87;

CASPER         FAIR      65  39  38 W7        30.03S
6HR MIN TEMP:  64; 6HR MAX TEMP:  88;

DOUGLAS        FAIR      73  39  29 NW5       30.00F
6HR MIN TEMP:  72; 6HR MAX TEMP:  90; 6HR PCP: TRACE;


$$
WYZ021-027>030-104>119-020700-
SOUTHERN WYOMING

CITY           SKY/WX    TMP DP  RH WIND       PRES   REMARKS
EVANSTON       FAIR      60  41  49 SE8       30.18R
6HR MIN TEMP:  60; 6HR MAX TEMP:  79;

KEMMERER       FAIR      59  36  41 S3        30.18S
FORT BRIDGER   PTCLDY    63  43  48 S8        30.20S
ROCK SPRINGS   FAIR      60  42  51 S7        30.17S
6HR MIN TEMP:  60; 6HR MAX TEMP:  69;

DIXON          FAIR      57  46  67 E3        30.24S
RAWLINS        FAIR      65  39  38 SW15      30.18S
6HR MIN TEMP:  64; 6HR MAX TEMP:  79;

SARATOGA       FAIR      59  43  55 SE16      30.23S
LARAMIE        FAIR      51  40  65 SE8       30.21F
6HR MIN TEMP:  50; 6HR MAX TEMP:  73; 6HR PCP:  0.13;

CHEYENNE       FAIR      62  40  44 W9        30.12S
6HR MIN TEMP:  62; 6HR MAX TEMP:  82;

TORRINGTON     FAIR      68  49  50 NW6       29.95S
6HR MIN TEMP:  67; 6HR MAX TEMP:  93;

PINE BLUFFS    FAIR      59  37  44 SW5       30.07S

$$


USA.gov is the U.S. government's official web portal to all federal, state and local government web resources and services.